Wind_Speed
51 47 45 42 39 36 32 31 31 28 26 24 23 24 22 26 29 27 27 30 32 31 32 34 35 39 36 34 30 28 27 26 23 23 24 24 23 23 20 20 21 22 23
51 48 46 44 40 37 34 33 30 31 29 24 26 26 25 29 30 27 29 31 34 32 33 34 37 38 35 32 28 27 27 26 27 26 26 24 24 25 23 24 25 25 26
49 47 46 44 41 38 36 34 32 31 29 25 27 28 27 30 29 28 31 33 35 33 34 35 38 38 34 31 29 29 29 28 29 29 28 28 26 25 27 28 29 28 29
51 49 47 44 41 39 36 33 33 31 29 28 29 29 30 30 28 31 32 36 36 34 34 36 39 38 34 32 32 31 30 28 29 30 29 31 30 30 29 30 32 33 34
50 49 47 45 43 38 36 34 33 32 31 30 30 30 30 28 31 34 37 36 37 34 35 37 39 37 33 34 33 31 29 29 28 31 31 33 33 33 33 34 36 35 35
49 48 49 45 41 38 36 36 34 33 32 31 30 29 28 33 38 39 39 38 36 35 36 38 39 37 34 34 32 31 30 29 30 31 33 34 36 38 39 39 39 39 40
49 48 47 43 42 40 38 37 36 34 30 30 32 30 32 36 38 39 40 39 36 36 36 39 40 37 35 35 34 34 34 35 34 35 37 38 40 42 43 44 43 43 43
48 46 46 44 42 41 39 38 36 33 32 31 31 30 37 37 37 41 41 40 38 37 39 39 41 38 37 37 36 37 38 39 40 41 41 43 45 46 47 48 50 50 50
46 44 43 42 41 40 38 37 35 33 32 30 31 38 40 42 43 44 42 39 38 39 40 43 43 39 38 38 39 40 41 42 44 45 47 48 49 49 50 52 55 57 56
43 42 42 41 40 39 37 35 35 31 27 32 38 43 41 42 44 43 41 38 40 41 44 46 43 40 40 41 42 43 44 46 48 49 51 52 53 53 55 57 59 61 61
39 39 39 39 38 36 34 32 29 29 33 38 41 42 42 44 44 43 39 40 41 45 47 45 43 42 43 44 45 47 48 50 52 54 55 56 57 58 61 63 64 66 67
38 36 36 35 34 32 30 28 30 34 36 38 40 42 44 44 45 41 39 40 45 49 48 46 44 44 46 47 49 51 52 53 55 57 58 59 62 64 66 68 70 70 71
34 34 34 33 32 30 27 28 29 33 38 39 42 44 44 44 42 39 41 45 50 50 49 47 46 48 50 52 53 55 56 56 58 62 64 65 67 69 70 72 72 73 74
32 32 32 31 29 28 28 30 33 36 39 43 44 44 43 42 38 41 46 51 52 51 48 48 50 52 54 56 57 57 59 62 64 66 69 70 72 72 73 74 76 77 78
29 29 29 29 29 30 30 32 36 39 43 43 43 42 40 37 42 48 51 52 51 50 51 53 55 57 58 58 60 62 65 67 69 71 72 72 73 73 73 74 75 76 77
28 27 27 28 30 30 32 36 41 42 42 42 40 39 37 44 49 50 52 51 51 53 55 57 58 59 61 64 66 68 69 71 73 74 74 74 74 74 74 74 75 76 76
26 26 28 28 29 32 37 41 41 41 40 39 36 39 45 49 50 52 51 52 54 57 58 60 61 64 67 69 71 73 74 76 77 76 75 73 73 73 73 73 73 75 77
27 28 30 32 35 37 39 40 39 38 36 35 42 46 49 50 51 51 53 56 58 59 61 63 66 69 71 73 75 76 77 76 74 73 72 72 72 74 76 77 78 79 81
30 32 33 35 37 37 35 35 35 34 37 42 47 49 50 50 52 54 57 58 60 62 65 69 71 73 74 75 76 75 75 74 72 72 72 72 73 75 78 80 81 82 84
31 31 33 33 32 33 32 33 35 38 43 46 48 49 50 53 54 56 58 60 64 67 70 71 73 74 75 74 73 72 72 72 72 71 72 74 77 79 84 89 92 93 93
30 30 28 27 30 31 32 36 40 44 45 46 48 50 52 53 55 59 62 65 68 70 73 75 73 72 72 71 72 73 73 73 73 74 76 79 84 89 92 96 100 103 103
27 27 27 29 30 34 38 40 42 43 45 47 48 50 53 56 59 63 66 68 71 74 74 73 71 72 72 73 73 73 74 77 80 82 83 86 91 95 100 104 99 90 82
26 25 26 31 35 37 38 40 41 43 44 47 50 53 57 61 64 67 70 72 72 73 72 72 72 72 72 73 74 77 80 84 86 89 91 94 98 104 102 87 76 69 65
25 29 32 34 35 36 38 39 41 45 48 51 55 59 62 66 69 72 73 72 72 72 71 72 73 74 76 77 80 83 87 89 92 95 98 103 104 90 76 71 63 56 53
28 30 31 33 34 35 39 42 45 48 53 57 61 65 68 70 71 71 71 70 69 71 73 75 77 80 79 82 86 89 92 95 98 102 106 99 81 73 63 53 48 46 46
28 29 30 33 36 39 42 45 50 54 59 63 65 68 70 71 71 71 69 70 73 74 76 78 81 82 85 87 90 93 94 99 105 103 89 75 67 57 50 47 43 41 36
Wind_Direction
210 210 210 211 211 214 220 229 232 240 249 254 266 275 288 293 296 296 298 304 307 305 304 307 314 317 317 318 316 304 294 282 287 293 301 304 300 302 307 306 306 305 302
210 209 208 211 212 217 220 227 234 240 246 255 267 277 284 290 292 294 296 306 305 304 304 309 315 316 317 317 314 305 297 287 276 284 292 301 303 300 301 303 305 306 304
209 208 208 212 215 219 222 227 233 241 248 255 268 277 285 288 291 289 298 301 302 303 306 309 314 314 315 313 308 301 297 294 278 278 289 296 300 299 297 301 302 302 300
207 206 207 211 215 220 223 228 236 243 250 261 271 279 289 286 285 290 295 300 301 302 304 310 315 313 313 311 306 300 298 293 284 281 285 293 296 298 296 295 295 296 294
207 208 209 212 217 220 225 231 239 245 255 263 271 277 281 284 290 292 293 301 299 302 306 313 314 311 310 310 306 299 297 294 289 284 286 290 292 293 292 291 291 289 288
209 210 212 215 219 222 228 234 241 248 257 265 271 275 280 283 286 286 294 299 298 302 307 313 312 309 306 306 302 297 293 292 289 287 287 289 292 292 293 292 291 290 290
209 212 215 217 221 226 230 235 241 251 258 270 275 273 284 286 283 289 295 297 299 303 309 311 310 307 302 300 298 293 291 292 291 290 290 290 291 292 293 293 290 291 290
211 213 215 218 221 226 231 236 245 253 258 261 267 280 278 282 285 289 296 296 299 302 308 309 307 303 298 295 295 291 289 289 290 290 290 291 290 290 291 291 292 291 290
212 214 217 220 222 227 234 242 247 253 258 263 269 272 277 278 282 291 294 296 299 304 308 307 304 301 296 293 293 292 291 291 291 291 292 292 292 291 290 288 289 290 290
214 217 220 225 228 232 237 243 248 253 261 270 261 272 277 280 286 292 295 298 301 305 306 304 302 298 294 292 293 294 293 292 292 292 294 293 291 289 289 290 291 291 291
214 219 222 226 230 234 239 243 247 254 263 263 270 274 277 283 290 293 296 299 303 305 303 301 299 295 293 295 297 297 296 296 296 295 295 294 293 293 292 292 291 291 292
214 218 223 228 231 236 242 242 256 262 264 269 272 274 281 288 292 295 297 301 305 302 300 298 295 295 297 298 298 297 297 297 298 297 295 293 293 292 291 291 291 292 291
215 220 224 228 232 235 243 252 260 265 265 269 271 278 285 290 294 296 301 303 302 299 298 297 298 299 298 298 298 298 298 298 297 296 295 294 293 293 292 292 292 292 292
215 220 225 229 231 237 249 257 260 263 265 269 277 284 288 292 295 300 303 301 298 298 298 299 298 297 297 298 299 300 300 298 297 296 295 295 295 295 295 295 295 294 293
216 222 226 231 235 245 253 258 260 262 269 277 282 287 291 293 300 303 299 298 299 300 299 298 299 299 299 300 300 298 297 297 296 296 297 297 297 296 296 295 294 293 292
217 222 227 233 240 246 252 256 260 268 275 281 287 290 293 300 301 296 296 298 298 298 300 300 299 300 300 299 298 297 297 299 301 300 300 300 300 299 299 298 297 296 295
217 223 230 236 242 247 253 260 267 275 282 286 289 295 300 298 295 296 296 296 299 299 298 300 300 300 300 299 300 301 302 303 302 302 303 301 300 300 298 297 297 296 294
219 225 232 238 246 253 260 269 276 281 284 291 297 298 295 294 294 295 297 297 297 299 300 300 300 300 300 301 302 303 303 304 304 303 302 302 301 300 298 296 295 293 293
224 231 240 247 253 261 269 275 279 286 295 296 294 292 293 294 296 297 297 299 300 300 300 300 300 302 304 305 305 305 304 303 303 304 303 300 298 297 296 296 295 294 294
233 241 247 254 263 269 274 282 290 294 292 291 291 293 295 295 297 298 299 300 300 299 300 302 304 305 306 306 304 304 304 304 303 302 301 300 300 300 300 299 299 298 296
241 247 258 269 271 276 286 290 290 288 290 292 293 294 295 297 299 299 299 299 300 302 305 305 306 305 305 306 307 306 305 304 303 301 301 301 301 301 301 302 302 301 299
254 261 269 276 281 286 286 286 287 289 291 292 294 296 297 298 299 300 300 302 304 305 306 306 307 308 308 308 306 304 304 304 304 304 304 303 304 304 304 305 303 298 295
265 273 279 283 282 282 285 286 288 290 292 294 295 297 298 299 301 302 304 305 306 306 307 308 309 310 310 308 306 306 307 307 307 307 307 308 307 307 308 303 301 298 296
276 277 276 278 282 283 286 288 290 292 295 296 298 299 302 302 303 304 305 306 307 309 311 311 312 311 310 310 310 311 310 309 309 310 311 310 311 310 307 305 301 297 296
270 273 276 279 282 284 287 291 293 296 298 300 301 301 301 303 304 306 306 308 312 313 313 312 312 312 312 313 313 313 312 312 312 311 312 313 311 310 308 306 303 299 298
272 275 277 281 286 290 294 296 298 299 300 300 301 302 304 306 307 308 311 314 315 314 314 314 313 313 314 315 314 313 313 313 313 314 313 313 313 312 310 307 303 300 298
Height
5777 5785 5793 5801 5807 5812 5816 5821 5825 5828 5830 5832 5834 5834 5833 5833 5832 5832 5830 5828 5826 5823 5821 5818 5815 5812 5807 5803 5799 5797 5795 5794 5793 5792 5790 5787 5785 5783 5781 5780 5778 5775 5773
5772 5780 5788 5795 5802 5807 5811 5816 5820 5823 5825 5827 5829 5829 5828 5828 5827 5826 5825 5822 5820 5817 5815 5812 5809 5805 5800 5797 5793 5791 5788 5787 5786 5785 5784 5782 5780 5777 5776 5774 5772 5770 5767
5768 5776 5783 5790 5796 5801 5806 5811 5815 5818 5820 5821 5823 5823 5823 5822 5821 5820 5818 5816 5814 5811 5809 5805 5802 5799 5794 5790 5788 5785 5783 5781 5779 5778 5777 5776 5774 5772 5769 5766 5764 5763 5760
5761 5769 5776 5784 5790 5796 5802 5806 5809 5812 5814 5816 5817 5817 5816 5816 5815 5814 5812 5810 5807 5805 5802 5799 5796 5792 5788 5784 5781 5779 5777 5774 5772 5771 5770 5768 5766 5764 5763 5760 5756 5754 5751
5756 5765 5773 5779 5785 5791 5796 5800 5803 5806 5809 5810 5811 5811 5811 5811 5809 5808 5805 5803 5800 5797 5795 5792 5789 5785 5781 5778 5775 5772 5770 5768 5766 5764 5762 5760 5758 5755 5753 5751 5747 5746 5743
5752 5760 5767 5773 5781 5787 5791 5794 5798 5801 5803 5804 5805 5805 5805 5804 5803 5801 5798 5796 5793 5791 5788 5785 5782 5778 5774 5771 5768 5766 5763 5761 5758 5757 5754 5752 5748 5745 5742 5740 5737 5735 5731
5747 5755 5763 5770 5776 5781 5785 5789 5792 5795 5797 5798 5799 5799 5799 5797 5796 5794 5791 5789 5786 5784 5781 5778 5774 5770 5767 5764 5761 5758 5755 5753 5750 5747 5745 5741 5737 5734 5731 5728 5725 5723 5720
5743 5751 5758 5764 5770 5775 5780 5783 5786 5789 5791 5792 5792 5792 5792 5790 5788 5786 5784 5781 5779 5776 5773 5771 5767 5762 5759 5755 5752 5749 5746 5744 5741 5737 5734 5731 5727 5723 5719 5715 5712 5710 5707
5739 5747 5754 5760 5765 5770 5774 5778 5781 5783 5784 5785 5786 5785 5784 5782 5780 5778 5775 5773 5770 5768 5765 5762 5757 5753 5750 5747 5743 5740 5737 5734 5730 5727 5723 5719 5715 5711 5707 5703 5698 5694 5692
5736 5743 5749 5755 5761 5765 5769 5773 5775 5778 5778 5779 5779 5778 5776 5774 5772 5770 5767 5765 5762 5759 5756 5752 5747 5743 5740 5737 5734 5730 5727 5723 5719 5715 5711 5707 5702 5698 5693 5689 5685 5680 5676
5732 5739 5746 5751 5755 5760 5764 5767 5770 5771 5772 5772 5771 5770 5768 5766 5764 5761 5759 5756 5753 5750 5746 5741 5737 5733 5730 5726 5723 5719 5715 5712 5707 5703 5699 5694 5690 5686 5680 5675 5670 5665 5658
5728 5735 5741 5746 5751 5755 5759 5762 5763 5764 5764 5763 5763 5761 5759 5758 5756 5753 5750 5747 5744 5740 5735 5730 5726 5722 5719 5715 5712 5708 5704 5699 5695 5690 5685 5680 5675 5670 5663 5657 5652 5646 5640
5725 5731 5737 5742 5746 5751 5754 5755 5756 5757 5756 5755 5754 5753 5751 5749 5747 5744 5741 5737 5733 5728 5723 5719 5715 5712 5707 5703 5699 5695 5690 5685 5680 5675 5670 5664 5658 5653 5646 5640 5634 5628 5621
5722 5727 5733 5738 5741 5745 5747 5748 5749 5749 5748 5747 5746 5744 5742 5740 5737 5734 5730 5726 5721 5717 5712 5708 5704 5700 5695 5691 5686 5681 5676 5671 5665 5659 5652 5646 5639 5632 5625 5618 5612 5605 5599
5718 5723 5729 5733 5736 5738 5740 5741 5742 5741 5740 5739 5737 5736 5733 5730 5727 5724 5720 5715 5710 5706 5701 5697 5692 5687 5682 5677 5672 5666 5661 5655 5649 5642 5634 5627 5619 5612 5604 5597 5590 5581 5574
5714 5719 5724 5727 5730 5731 5733 5734 5734 5733 5732 5731 5729 5727 5724 5721 5717 5713 5709 5704 5700 5695 5690 5685 5679 5674 5668 5662 5656 5651 5645 5638 5631 5623 5615 5607 5598 5590 5582 5574 5566 5557 5550
5710 5715 5719 5721 5723 5724 5725 5726 5725 5725 5723 5722 5720 5718 5715 5711 5707 5702 5698 5693 5689 5684 5678 5672 5666 5660 5653 5646 5640 5633 5627 5619 5610 5601 5593 5586 5576 5568 5561 5554 5547 5538 5528
5706 5710 5713 5715 5717 5717 5718 5718 5717 5716 5715 5713 5711 5708 5704 5700 5696 5691 5687 5682 5677 5671 5666 5658 5652 5645 5638 5630 5622 5614 5607 5599 5589 5581 5572 5564 5557 5547 5537 5531 5525 5516 5507
5701 5704 5707 5708 5709 5710 5710 5710 5709 5708 5706 5704 5701 5697 5693 5689 5685 5680 5675 5669 5663 5657 5651 5644 5636 5628 5620 5611 5602 5593 5586 5579 5570 5561 5552 5543 5535 5525 5516 5506 5499 5494 5484
5697 5699 5700 5701 5703 5703 5702 5702 5701 5699 5697 5694 5690 5687 5683 5678 5672 5667 5661 5655 5649 5643 5636 5628 5618 5609 5600 5590 5582 5572 5564 5558 5552 5544 5534 5523 5511 5501 5490 5476 5466 5459 5452
5691 5692 5694 5695 5695 5695 5695 5694 5692 5689 5687 5684 5680 5675 5670 5665 5659 5653 5647 5640 5633 5626 5617 5610 5601 5590 5580 5571 5560 5550 5541 5533 5529 5521 5513 5501 5487 5475 5462 5447 5433 5419 5408
5685 5686 5687 5688 5688 5688 5687 5685 5683 5680 5676 5672 5668 5663 5658 5652 5646 5638 5630 5622 5614 5607 5598 5590 5582 5571 5560 5550 5541 5531 5522 5511 5503 5496 5487 5475 5461 5446 5431 5415 5399 5384 5372
5680 5681 5681 5681 5681 5680 5678 5675 5673 5669 5665 5660 5656 5650 5644 5637 5629 5622 5614 5605 5595 5587 5579 5569 5561 5553 5542 5532 5521 5512 5500 5489 5476 5467 5456 5444 5430 5413 5398 5381 5368 5357 5349
5674 5675 5675 5674 5673 5671 5669 5666 5662 5658 5653 5648 5642 5636 5629 5621 5613 5604 5595 5586 5576 5568 5558 5548 5540 5532 5522 5510 5499 5488 5475 5464 5451 5438 5427 5413 5396 5379 5365 5356 5346 5338 5332
5668 5668 5667 5666 5664 5661 5658 5655 5650 5645 5640 5635 5628 5621 5613 5606 5597 5588 5579 5569 5557 5546 5538 5527 5517 5507 5502 5487 5474 5461 5448 5435 5421 5408 5396 5381 5366 5356 5345 5337 5329 5323 5317
5661 5660 5659 5657 5655 5652 5648 5643 5638 5633 5627 5620 5613 5606 5598 5590 5582 5573 5565 5554 5543 5531 5519 5507 5494 5487 5474 5466 5452 5438 5424 5409 5392 5379 5365 5355 5343 5334 5328 5322 5318 5310 5305